Weather in Kannur

India     11°52′29″N   75°22′45″E
temp.,
°C
wind,
m/s
gust,
m/s
humid.,
%
clouds,
%
prec.,
mm/h
press.,
hPa
HPBL,
m
26 february, fri
fri2623:30+25n34882 0.0 1012257
02:30+24n23910 0.0 1010200
05:30+23n11935 0.0 1010109
08:30+27ne11760 0.0 1013262
11:30+31wsw32580 0.0 1012920
14:30+30w55641 0.0 1008551
17:30+29w456917 0.0 1008553
20:30+26nw35820 0.0 1010270
27 february, sat
sat2723:30+25n23860 0.0 1011195
02:30+24n23880 0.0 1009181
05:30+23ene11922 0.0 100887
08:30+27se11740 0.0 1011286
11:30+30wsw43590 0.0 1011595
14:30+30w56590 0.0 1007634
17:30+29wnw45610 0.0 1006635
20:30+26nw35740 0.0 1009266
28 february, sun
sun2823:30+24n34780 0.0 1010186
02:30+23n22830 0.0 1008106
05:30+22e11830 0.0 100871
08:30+27ese11660 0.0 1011269
11:30+30sw33570 0.0 1010512
14:30+30wsw45560 0.0 1006508
17:30+29w35630 0.0 1006511
20:30+26nnw23780 0.0 1010233
1 march, mon
mon123:30+24ne12830 0.0 101189
02:30+24ene23830 0.0 101073
05:30+23ene23800 0.0 101076
08:30+27ne12630 0.0 1012195
11:30+30sw42560 0.0 1013639
14:30+30sw55610 0.0 1009577
17:30+29wsw34650 0.0 1009631
20:30+26nw13800 0.0 1012286
2 march, tue
tue223:30+25ne23850 0.0 101389
02:30+24ene22870 0.0 101173
05:30+23ene22890 0.0 101173
08:30+27ne22690 0.0 1014243
11:30+31sw33530 0.0 10131041
14:30+30wsw56630 0.0 1009651
17:30+29w34670 0.0 1009745
20:30+26n13810 0.0 1012318